TimeCST,TemperatureF,Dew PointF,Humidity,Sea Level PressureIn,VisibilityMPH,Wind Direction,Wind SpeedMPH,Gust SpeedMPH,PrecipitationIn,Events,Conditions,WindDirDegrees,DateUTC
12:53 AM,45.0,44.1,97,30.28,8.0,ENE,3.5,-,N/A,,Clear,70,2012-12-02 06:53:00
1:53 AM,45.0,43.0,93,30.28,6.0,Calm,Calm,-,N/A,,Clear,0,2012-12-02 07:53:00
2:53 AM,46.0,44.1,93,30.27,7.0,Calm,Calm,-,N/A,,Clear,0,2012-12-02 08:53:00
3:53 AM,45.0,43.0,93,30.29,9.0,Calm,Calm,-,N/A,,Clear,0,2012-12-02 09:53:00
4:53 AM,45.0,43.0,93,30.29,7.0,Calm,Calm,-,N/A,,Partly Cloudy,0,2012-12-02 10:53:00
5:53 AM,45.0,43.0,93,30.31,7.0,Calm,Calm,-,N/A,,Partly Cloudy,0,2012-12-02 11:53:00
6:41 AM,44.6,42.8,93,30.32,6.0,Calm,Calm,-,N/A,,Mostly Cloudy,0,2012-12-02 12:41:00
6:49 AM,46.4,44.6,93,30.33,6.0,Calm,Calm,-,N/A,,Mostly Cloudy,0,2012-12-02 12:49:00
6:53 AM,46.9,45.0,93,30.33,6.0,Calm,Calm,-,N/A,,Mostly Cloudy,0,2012-12-02 12:53:00
7:53 AM,53.1,51.1,93,30.34,7.0,Calm,Calm,-,N/A,,Overcast,0,2012-12-02 13:53:00
8:53 AM,57.9,54.0,87,30.35,10.0,ENE,3.5,-,N/A,,Overcast,70,2012-12-02 14:53:00
9:26 AM,62.6,55.4,77,30.36,10.0,ENE,3.5,-,N/A,,Scattered Clouds,70,2012-12-02 15:26:00
9:53 AM,66.0,57.9,75,30.35,10.0,NE,3.5,-,N/A,,Clear,50,2012-12-02 15:53:00
10:53 AM,72.0,59.0,64,30.33,10.0,Calm,Calm,-,N/A,,Clear,0,2012-12-02 16:53:00
11:53 AM,73.9,54.0,50,30.30,10.0,Calm,Calm,-,N/A,,Clear,0,2012-12-02 17:53:00
12:53 PM,77.0,54.0,45,30.27,10.0,Variable,3.5,-,N/A,,Mostly Cloudy,0,2012-12-02 18:53:00
1:53 PM,73.9,54.0,50,30.25,10.0,SSW,3.5,-,N/A,,Clear,200,2012-12-02 19:53:00
3:53 PM,73.9,54.0,50,30.25,10.0,Calm,Calm,-,N/A,,Overcast,0,2012-12-02 21:53:00
4:53 PM,66.9,55.9,68,30.25,10.0,Calm,Calm,-,N/A,,Clear,0,2012-12-02 22:53:00
5:53 PM,59.0,55.9,90,30.25,10.0,Calm,Calm,-,N/A,,Clear,0,2012-12-02 23:53:00
6:53 PM,55.9,53.1,90,30.26,10.0,Calm,Calm,-,N/A,,Clear,0,2012-12-03 00:53:00
7:53 PM,54.0,52.0,93,30.27,10.0,Calm,Calm,-,N/A,,Clear,0,2012-12-03 01:53:00
8:53 PM,52.0,50.0,93,30.27,8.0,Calm,Calm,-,N/A,,Clear,0,2012-12-03 02:53:00
9:53 PM,51.1,48.9,92,30.27,8.0,Calm,Calm,-,N/A,,Clear,0,2012-12-03 03:53:00
10:02 PM,50.0,48.2,94,30.27,2.0,Calm,Calm,-,N/A,,Partly Cloudy,0,2012-12-03 04:02:00
10:11 PM,51.8,48.2,88,30.27,3.0,Calm,Calm,-,N/A,,Mostly Cloudy,0,2012-12-03 04:11:00
10:48 PM,50.0,48.2,94,30.27,7.0,Calm,Calm,-,N/A,,Overcast,0,2012-12-03 04:48:00
10:53 PM,50.0,48.0,93,30.27,6.0,Calm,Calm,-,N/A,,Overcast,0,2012-12-03 04:53:00
11:08 PM,50.0,48.2,94,30.27,1.0,Calm,Calm,-,N/A,,Mist,0,2012-12-03 05:08:00
11:10 PM,50.0,48.2,94,30.27,0.5,Calm,Calm,-,N/A,Fog,Fog,0,2012-12-03 05:10:00
11:30 PM,48.2,48.2,100,30.27,1.0,Calm,Calm,-,N/A,,Mist,0,2012-12-03 05:30:00
11:38 PM,50.0,48.2,94,30.27,0.5,Calm,Calm,-,N/A,Fog,Fog,0,2012-12-03 05:38:00
11:53 PM,50.0,48.0,93,30.26,0.2,Calm,Calm,-,N/A,Fog,Fog,0,2012-12-03 05:53:00